Wetterdaten: Woche 11.01.21 - 17.01.21 (KW2)
Datum Zeit Temp. 2m rel. Feuchte Luftdruck Regen Wind Richtung Sonne ET UV-Index Solar Taupunkt Ben
11.01.2021 00:00 0,3 C 90 % 1023,8 hPa 0,0 mm 1,0 km/h (0 Bft) W-SW 0,00 h 0,0 mm 0,0 UV-I 0 W/m -1,2 C 4,0 km/h (1 Bft)
11.01.2021 01:00 0,2 C 89 % 1023,3 hPa 0,0 mm 3,8 km/h (1 Bft) W-SW 0,00 h 0,0 mm 0,0 UV-I 0 W/m -1,4 C 10,7 km/h (2 Bft)
11.01.2021 02:00 0,2 C 89 % 1023,2 hPa 0,0 mm 2,4 km/h (1 Bft) W-SW 0,00 h 0,0 mm 0,0 UV-I 0 W/m -1,4 C 7,4 km/h (2 Bft)
11.01.2021 03:00 0,1 C 87 % 1023,2 hPa 0,0 mm 3,2 km/h (1 Bft) W 0,00 h 0,0 mm 0,0 UV-I 0 W/m -1,8 C 8,0 km/h (2 Bft)
11.01.2021 04:00 0,1 C 87 % 1022,9 hPa 0,0 mm 3,0 km/h (1 Bft) W 0,00 h 0,0 mm 0,0 UV-I 0 W/m -1,8 C 7,0 km/h (2 Bft)
11.01.2021 05:00 0,1 C 87 % 1022,7 hPa 0,0 mm 2,2 km/h (1 Bft) W 0,00 h 0,0 mm 0,0 UV-I 0 W/m -1,9 C 6,1 km/h (2 Bft)
11.01.2021 06:00 -0,4 C 88 % 1022,6 hPa 0,0 mm 1,6 km/h (1 Bft) W 0,00 h 0,0 mm 0,0 UV-I 0 W/m -2,1 C 4,8 km/h (1 Bft)
11.01.2021 07:00 -0,4 C 88 % 1022,4 hPa 0,0 mm 3,0 km/h (1 Bft) W 0,00 h 0,0 mm 0,0 UV-I 0 W/m -2,1 C 8,1 km/h (2 Bft)
11.01.2021 08:00 -0,4 C 88 % 1022,4 hPa 0,0 mm 1,8 km/h (1 Bft) W 0,00 h 0,0 mm 0,0 UV-I 11 W/m -2,2 C 5,9 km/h (2 Bft)
11.01.2021 09:00 0,1 C 86 % 1022,0 hPa 0,0 mm 5,7 km/h (1 Bft) W 0,00 h 0,0 mm 0,0 UV-I 23 W/m -1,9 C 13,3 km/h (3 Bft)
11.01.2021 10:00 0,8 C 84 % 1021,7 hPa 0,0 mm 7,3 km/h (2 Bft) W 0,00 h 0,0 mm 0,8 UV-I 52 W/m -1,5 C 16,3 km/h (3 Bft)
11.01.2021 11:00 1,2 C 84 % 1021,2 hPa 0,0 mm 7,5 km/h (2 Bft) W 0,00 h 0,0 mm 0,4 UV-I 51 W/m -1,3 C 16,8 km/h (3 Bft)
11.01.2021 12:00 1,5 C 84 % 1020,6 hPa 0,0 mm 5,0 km/h (1 Bft) W 0,00 h 0,0 mm 0,0 UV-I 36 W/m -0,8 C 12,0 km/h (2 Bft)
11.01.2021 13:00 2,0 C 86 % 1019,3 hPa 0,0 mm 5,5 km/h (1 Bft) W-SW 0,00 h 0,0 mm 0,0 UV-I 45 W/m -0,2 C 13,1 km/h (3 Bft)
11.01.2021 14:00 2,6 C 87 % 1018,4 hPa 0,0 mm 5,6 km/h (1 Bft) W 0,00 h 0,0 mm 0,0 UV-I 30 W/m 0,6 C 12,0 km/h (2 Bft)
11.01.2021 15:00 3,1 C 87 % 1017,7 hPa 0,0 mm 6,5 km/h (2 Bft) W-SW 0,00 h 0,0 mm 0,0 UV-I 29 W/m 1,2 C 13,9 km/h (3 Bft)
11.01.2021 16:00 3,5 C 88 % 1017,5 hPa 0,0 mm 4,7 km/h (1 Bft) SW 0,00 h 0,0 mm 0,0 UV-I 13 W/m 1,6 C 11,1 km/h (2 Bft)
11.01.2021 17:00 3,3 C 88 % 1016,8 hPa 0,0 mm 3,8 km/h (1 Bft) W-SW 0,00 h 0,0 mm 0,0 UV-I 0 W/m 1,5 C 10,4 km/h (2 Bft)
11.01.2021 18:00 3,6 C 87 % 1016,2 hPa 0,0 mm 4,9 km/h (1 Bft) W 0,00 h 0,0 mm 0,0 UV-I 0 W/m 1,6 C 10,7 km/h (2 Bft)
11.01.2021 19:00 4,0 C 87 % 1015,6 hPa 0,0 mm 5,1 km/h (1 Bft) W 0,00 h 0,0 mm 0,0 UV-I 0 W/m 1,9 C 12,6 km/h (3 Bft)
11.01.2021 20:00 5,1 C 85 % 1015,1 hPa 0,0 mm 7,3 km/h (2 Bft) O 0,00 h 0,0 mm 0,0 UV-I 0 W/m 2,8 C 18,7 km/h (3 Bft)
11.01.2021 21:00 5,4 C 84 % 1014,4 hPa 0,0 mm 8,5 km/h (2 Bft) O 0,00 h 0,0 mm 0,0 UV-I 0 W/m 3,0 C 21,3 km/h (4 Bft)
11.01.2021 22:00 5,5 C 84 % 1013,8 hPa 0,0 mm 10,6 km/h (2 Bft) O 0,00 h 0,0 mm 0,0 UV-I 0 W/m 3,0 C 25,6 km/h (4 Bft)
11.01.2021 23:00 5,5 C 87 % 1012,9 hPa 0,3 mm 13,6 km/h (3 Bft) O 0,00 h 0,0 mm 0,0 UV-I 0 W/m 3,4 C 34,8 km/h (5 Bft)
12.01.2021 00:00 5,3 C 88 % 1012,0 hPa 0,0 mm 14,9 km/h (3 Bft) NO 0,00 h 0,0 mm 0,0 UV-I 0 W/m 3,4 C 35,0 km/h (5 Bft)
12.01.2021 01:00 5,5 C 88 % 1011,0 hPa 0,3 mm 17,2 km/h (3 Bft) N 0,00 h 0,0 mm 0,0 UV-I 0 W/m 3,7 C 37,8 km/h (5 Bft)
12.01.2021 02:00 5,5 C 89 % 1009,9 hPa 0,3 mm 18,8 km/h (3 Bft) N-NO 0,00 h 0,0 mm 0,0 UV-I 0 W/m 3,8 C 41,7 km/h (6 Bft)
12.01.2021 03:00 5,5 C 89 % 1008,9 hPa 0,3 mm 17,8 km/h (3 Bft) N 0,00 h 0,0 mm 0,0 UV-I 0 W/m 3,9 C 40,2 km/h (6 Bft)
12.01.2021 04:00 5,8 C 90 % 1007,8 hPa 0,8 mm 19,4 km/h (3 Bft) N-NO 0,00 h 0,0 mm 0,0 UV-I 0 W/m 4,3 C 42,0 km/h (6 Bft)
12.01.2021 05:00 5,8 C 91 % 1006,9 hPa 1,0 mm 18,1 km/h (3 Bft) N 0,00 h 0,0 mm 0,0 UV-I 0 W/m 4,4 C 40,0 km/h (6 Bft)
12.01.2021 06:00 5,9 C 93 % 1006,1 hPa 0,8 mm 16,6 km/h (3 Bft) N-NW 0,00 h 0,0 mm 0,0 UV-I 0 W/m 4,8 C 37,4 km/h (5 Bft)
12.01.2021 07:00 6,1 C 93 % 1005,3 hPa 0,8 mm 17,1 km/h (3 Bft) N-NO 0,00 h 0,0 mm 0,0 UV-I 0 W/m 5,1 C 38,7 km/h (5 Bft)
12.01.2021 08:00 6,4 C 93 % 1004,9 hPa 0,8 mm 15,1 km/h (3 Bft) NO 0,00 h 0,0 mm 0,0 UV-I 5 W/m 5,4 C 35,2 km/h (5 Bft)
12.01.2021 09:00 6,9 C 93 % 1004,7 hPa 0,8 mm 15,3 km/h (3 Bft) O 0,00 h 0,0 mm 0,0 UV-I 12 W/m 5,9 C 34,2 km/h (5 Bft)
12.01.2021 10:00 7,3 C 94 % 1005,3 hPa 0,3 mm 17,4 km/h (3 Bft) N-NO 0,00 h 0,0 mm 0,0 UV-I 31 W/m 6,4 C 37,9 km/h (5 Bft)
12.01.2021 11:00 7,5 C 94 % 1006,0 hPa 0,3 mm 6,4 km/h (2 Bft) N-NO 0,00 h 0,0 mm 1,8 UV-I 59 W/m 6,6 C 20,6 km/h (4 Bft)
12.01.2021 12:00 7,3 C 94 % 1006,5 hPa 0,0 mm 4,0 km/h (1 Bft) N-NO 0,00 h 0,0 mm 1,8 UV-I 85 W/m 6,4 C 15,2 km/h (3 Bft)
12.01.2021 13:00 6,5 C 93 % 1007,1 hPa 0,3 mm 2,0 km/h (1 Bft) O-NO 0,00 h 0,0 mm 1,6 UV-I 83 W/m 5,5 C 8,0 km/h (2 Bft)
12.01.2021 14:00 5,9 C 90 % 1007,9 hPa 0,0 mm 1,9 km/h (1 Bft) N-NO 0,08 h 0,0 mm 1,3 UV-I 85 W/m 4,4 C 7,2 km/h (2 Bft)
12.01.2021 15:00 5,1 C 88 % 1009,2 hPa 0,0 mm 1,7 km/h (1 Bft) O 0,00 h 0,0 mm 0,7 UV-I 50 W/m 3,3 C 6,3 km/h (2 Bft)
12.01.2021 16:00 4,6 C 86 % 1010,3 hPa 0,0 mm 1,4 km/h (1 Bft) W-NW 0,25 h 0,0 mm 0,6 UV-I 20 W/m 2,5 C 6,5 km/h (2 Bft)
12.01.2021 17:00 3,5 C 84 % 1011,3 hPa 0,0 mm 3,4 km/h (1 Bft) N-NO 0,00 h 0,0 mm 0,0 UV-I 0 W/m 1,1 C 11,7 km/h (2 Bft)
12.01.2021 18:00 3,7 C 83 % 1012,2 hPa 0,0 mm 7,4 km/h (2 Bft) NO 0,00 h 0,0 mm 0,0 UV-I 0 W/m 1,1 C 20,3 km/h (4 Bft)
12.01.2021 19:00 3,9 C 84 % 1013,2 hPa 0,0 mm 4,6 km/h (1 Bft) NO 0,00 h 0,0 mm 0,0 UV-I 0 W/m 1,4 C 14,8 km/h (3 Bft)
12.01.2021 20:00 3,0 C 87 % 1014,0 hPa 0,0 mm 7,3 km/h (2 Bft) NO 0,00 h 0,0 mm 0,0 UV-I 0 W/m 1,0 C 17,4 km/h (3 Bft)
12.01.2021 21:00 2,5 C 89 % 1015,0 hPa 0,0 mm 9,7 km/h (2 Bft) N-NO 0,00 h 0,0 mm 0,0 UV-I 0 W/m 0,9 C 20,2 km/h (4 Bft)
12.01.2021 22:00 2,3 C 89 % 1015,5 hPa 0,0 mm 9,1 km/h (2 Bft) N-NO 0,00 h 0,0 mm 0,0 UV-I 0 W/m 0,8 C 18,7 km/h (3 Bft)
12.01.2021 23:00 1,8 C 90 % 1016,0 hPa 0,0 mm 9,2 km/h (2 Bft) N 0,00 h 0,0 mm 0,0 UV-I 0 W/m 0,4 C 17,6 km/h (3 Bft)
13.01.2021 00:00 1,6 C 92 % 1016,6 hPa 0,0 mm 11,3 km/h (2 Bft) N-NO 0,00 h 0,0 mm 0,0 UV-I 0 W/m 0,4 C 19,3 km/h (3 Bft)
13.01.2021 01:00 1,7 C 93 % 1016,7 hPa 0,0 mm 10,9 km/h (2 Bft) N 0,00 h 0,0 mm 0,0 UV-I 0 W/m 0,7 C 19,3 km/h (3 Bft)
13.01.2021 02:00 1,6 C 92 % 1016,9 hPa 0,0 mm 10,8 km/h (2 Bft) N-NO 0,00 h 0,0 mm 0,0 UV-I 0 W/m 0,4 C 21,3 km/h (4 Bft)
13.01.2021 03:00 1,7 C 91 % 1017,1 hPa 0,0 mm 10,0 km/h (2 Bft) N-NO 0,00 h 0,0 mm 0,0 UV-I 0 W/m 0,4 C 18,2 km/h (3 Bft)
13.01.2021 04:00 1,8 C 91 % 1017,3 hPa 0,0 mm 10,9 km/h (2 Bft) N 0,00 h 0,0 mm 0,0 UV-I 0 W/m 0,5 C 19,1 km/h (3 Bft)
13.01.2021 05:00 1,9 C 91 % 1017,2 hPa 0,0 mm 10,0 km/h (2 Bft) N-NW 0,00 h 0,0 mm 0,0 UV-I 0 W/m 0,6 C 19,8 km/h (3 Bft)
13.01.2021 06:00 2,1 C 91 % 1017,1 hPa 0,0 mm 10,1 km/h (2 Bft) N-NO 0,00 h 0,0 mm 0,0 UV-I 0 W/m 0,8 C 18,3 km/h (3 Bft)
13.01.2021 07:00 2,4 C 91 % 1017,0 hPa 0,0 mm 11,2 km/h (2 Bft) N-NO 0,00 h 0,0 mm 0,0 UV-I 0 W/m 1,1 C 22,4 km/h (4 Bft)
13.01.2021 08:00 2,2 C 91 % 1017,0 hPa 0,0 mm 10,3 km/h (2 Bft) N 0,08 h 0,0 mm 0,0 UV-I 10 W/m 0,8 C 21,7 km/h (4 Bft)
13.01.2021 09:00 2,4 C 91 % 1017,3 hPa 0,0 mm 13,0 km/h (3 Bft) N-NO 0,83 h 0,0 mm 0,9 UV-I 81 W/m 1,1 C 26,8 km/h (4 Bft)
13.01.2021 10:00 3,4 C 89 % 1017,2 hPa 0,0 mm 15,2 km/h (3 Bft) N-NO 0,67 h 0,0 mm 1,2 UV-I 137 W/m 1,8 C 32,6 km/h (5 Bft)
13.01.2021 11:00 3,9 C 89 % 1017,1 hPa 0,0 mm 14,3 km/h (3 Bft) N 0,00 h 0,1 mm 1,5 UV-I 100 W/m 2,2 C 29,8 km/h (5 Bft)
13.01.2021 12:00 4,4 C 86 % 1016,7 hPa 0,0 mm 16,9 km/h (3 Bft) N-NO 0,25 h 0,1 mm 1,4 UV-I 146 W/m 2,2 C 32,8 km/h (5 Bft)
13.01.2021 13:00 4,4 C 83 % 1016,1 hPa 0,0 mm 17,1 km/h (3 Bft) NO 0,17 h 0,1 mm 1,3 UV-I 111 W/m 1,9 C 36,8 km/h (5 Bft)
13.01.2021 14:00 4,9 C 80 % 1015,4 hPa 0,0 mm 11,5 km/h (2 Bft) N-NO 0,75 h 0,1 mm 1,6 UV-I 251 W/m 1,8 C 30,0 km/h (5 Bft)
13.01.2021 15:00 5,0 C 78 % 1014,8 hPa 0,0 mm 16,1 km/h (3 Bft) NO 0,42 h 0,1 mm 1,1 UV-I 89 W/m 1,5 C 33,5 km/h (5 Bft)
13.01.2021 16:00 4,3 C 81 % 1014,6 hPa 0,0 mm 13,6 km/h (3 Bft) N-NO 0,00 h 0,1 mm 0,0 UV-I 19 W/m 1,4 C 28,9 km/h (5 Bft)
13.01.2021 17:00 3,9 C 84 % 1014,2 hPa 0,0 mm 9,6 km/h (2 Bft) NO 0,00 h 0,0 mm 0,0 UV-I 0 W/m 1,4 C 22,6 km/h (4 Bft)
13.01.2021 18:00 3,7 C 86 % 1013,9 hPa 0,0 mm 12,5 km/h (3 Bft) N-NO 0,00 h 0,0 mm 0,0 UV-I 0 W/m 1,6 C 22,0 km/h (4 Bft)
13.01.2021 19:00 3,7 C 87 % 1013,9 hPa 0,0 mm 14,8 km/h (3 Bft) NO 0,00 h 0,0 mm 0,0 UV-I 0 W/m 1,8 C 34,6 km/h (5 Bft)
13.01.2021 20:00 3,5 C 88 % 1014,1 hPa 0,0 mm 16,3 km/h (3 Bft) N-NO 0,00 h 0,0 mm 0,0 UV-I 0 W/m 1,7 C 30,2 km/h (5 Bft)
13.01.2021 21:00 3,5 C 87 % 1014,2 hPa 0,0 mm 15,0 km/h (3 Bft) N-NO 0,00 h 0,0 mm 0,0 UV-I 0 W/m 1,5 C 29,6 km/h (5 Bft)
13.01.2021 22:00 3,6 C 87 % 1014,4 hPa 0,0 mm 13,7 km/h (3 Bft) N-NO 0,00 h 0,0 mm 0,0 UV-I 0 W/m 1,6 C 28,1 km/h (4 Bft)
13.01.2021 23:00 3,9 C 87 % 1015,0 hPa 0,0 mm 5,3 km/h (1 Bft) N-NO 0,00 h 0,0 mm 0,0 UV-I 0 W/m 1,9 C 16,3 km/h (3 Bft)
14.01.2021 00:00 3,8 C 89 % 1015,8 hPa 0,0 mm 2,4 km/h (1 Bft) N-NW 0,00 h 0,0 mm 0,0 UV-I 0 W/m 2,2 C 7,8 km/h (2 Bft)
14.01.2021 01:00 3,6 C 90 % 1016,1 hPa 0,0 mm 0,9 km/h (0 Bft) NO 0,00 h 0,0 mm 0,0 UV-I 0 W/m 2,1 C 4,4 km/h (1 Bft)
14.01.2021 02:00 3,4 C 86 % 1016,5 hPa 0,0 mm 0,1 km/h (0 Bft) N 0,00 h 0,0 mm 0,0 UV-I 0 W/m 1,3 C 1,8 km/h (1 Bft)
14.01.2021 03:00 2,9 C 80 % 1017,0 hPa 0,0 mm 0,0 km/h (0 Bft) N 0,00 h 0,0 mm 0,0 UV-I 0 W/m -0,3 C 0,6 km/h (0 Bft)
14.01.2021 04:00 2,5 C 82 % 1017,6 hPa 0,0 mm 0,0 km/h (0 Bft) N 0,00 h 0,0 mm 0,0 UV-I 0 W/m -0,3 C 0,6 km/h (0 Bft)
14.01.2021 05:00 2,1 C 82 % 1017,7 hPa 0,0 mm 0,0 km/h (0 Bft) N 0,00 h 0,0 mm 0,0 UV-I 0 W/m -0,7 C 0,0 km/h (0 Bft)
14.01.2021 06:00 1,9 C 82 % 1017,9 hPa 0,0 mm 0,0 km/h (0 Bft) N 0,00 h 0,0 mm 0,0 UV-I 0 W/m -0,8 C 0,2 km/h (0 Bft)
14.01.2021 07:00 1,6 C 83 % 1018,5 hPa 0,0 mm 0,0 km/h (0 Bft) N 0,00 h 0,0 mm 0,0 UV-I 0 W/m -0,9 C 0,2 km/h (0 Bft)
14.01.2021 08:00 1,3 C 85 % 1018,9 hPa 0,0 mm 0,0 km/h (0 Bft) N 0,00 h 0,0 mm 0,0 UV-I 8 W/m -1,0 C 0,0 km/h (0 Bft)
14.01.2021 09:00 1,5 C 84 % 1019,3 hPa 0,0 mm 0,0 km/h (0 Bft) N 0,00 h 0,0 mm 0,0 UV-I 36 W/m -0,9 C 0,0 km/h (0 Bft)
14.01.2021 10:00 2,2 C 80 % 1019,9 hPa 0,0 mm 0,0 km/h (0 Bft) N 0,00 h 0,0 mm 1,3 UV-I 74 W/m -1,0 C 0,4 km/h (0 Bft)
14.01.2021 11:00 2,4 C 79 % 1020,1 hPa 0,0 mm 1,6 km/h (1 Bft) S 0,00 h 0,0 mm 1,4 UV-I 107 W/m -0,8 C 5,9 km/h (2 Bft)
14.01.2021 12:00 2,7 C 77 % 1019,8 hPa 0,0 mm 4,9 km/h (1 Bft) SW 0,00 h 0,0 mm 1,5 UV-I 122 W/m -0,9 C 13,9 km/h (3 Bft)
14.01.2021 13:00 3,0 C 75 % 1019,1 hPa 0,0 mm 5,7 km/h (1 Bft) SW 0,00 h 0,1 mm 1,6 UV-I 140 W/m -1,0 C 13,3 km/h (3 Bft)
14.01.2021 14:00 3,2 C 74 % 1018,6 hPa 0,0 mm 8,6 km/h (2 Bft) SW 0,42 h 0,1 mm 1,5 UV-I 140 W/m -1,0 C 18,3 km/h (3 Bft)
14.01.2021 15:00 3,3 C 73 % 1018,5 hPa 0,0 mm 7,0 km/h (2 Bft) S-SW 0,08 h 0,1 mm 1,1 UV-I 71 W/m -1,0 C 16,7 km/h (3 Bft)
14.01.2021 16:00 3,0 C 76 % 1018,6 hPa 0,0 mm 3,8 km/h (1 Bft) S-SW 0,00 h 0,0 mm 0,0 UV-I 22 W/m -0,9 C 11,1 km/h (2 Bft)
14.01.2021 17:00 2,5 C 77 % 1018,9 hPa 0,0 mm 6,7 km/h (2 Bft) S-SW 0,00 h 0,0 mm 0,0 UV-I 0 W/m -1,2 C 16,6 km/h (3 Bft)
14.01.2021 18:00 2,1 C 77 % 1018,7 hPa 0,0 mm 6,2 km/h (2 Bft) SW 0,00 h 0,0 mm 0,0 UV-I 0 W/m -1,5 C 15,9 km/h (3 Bft)
14.01.2021 19:00 1,8 C 79 % 1018,9 hPa 0,0 mm 3,0 km/h (1 Bft) SW 0,00 h 0,0 mm 0,0 UV-I 0 W/m -1,5 C 7,4 km/h (2 Bft)
14.01.2021 20:00 1,3 C 79 % 1019,0 hPa 0,0 mm 2,4 km/h (1 Bft) S-SW 0,00 h 0,0 mm 0,0 UV-I 0 W/m -1,9 C 6,3 km/h (2 Bft)
14.01.2021 21:00 1,3 C 77 % 1019,5 hPa 0,0 mm 3,4 km/h (1 Bft) S-SW 0,00 h 0,0 mm 0,0 UV-I 0 W/m -2,2 C 9,6 km/h (2 Bft)
14.01.2021 22:00 1,3 C 77 % 1020,0 hPa 0,0 mm 2,4 km/h (1 Bft) S 0,00 h 0,0 mm 0,0 UV-I 0 W/m -2,3 C 6,3 km/h (2 Bft)
14.01.2021 23:00 0,6 C 79 % 1020,4 hPa 0,0 mm 0,1 km/h (0 Bft) N 0,00 h 0,0 mm 0,0 UV-I 0 W/m -2,6 C 0,6 km/h (0 Bft)
15.01.2021 00:00 0,1 C 80 % 1020,8 hPa 0,0 mm 0,0 km/h (0 Bft) N 0,00 h 0,0 mm 0,0 UV-I 0 W/m -2,9 C 0,4 km/h (0 Bft)
15.01.2021 01:00 -0,4 C 81 % 1021,2 hPa 0,0 mm 0,0 km/h (0 Bft) N 0,00 h 0,0 mm 0,0 UV-I 0 W/m -3,2 C 0,0 km/h (0 Bft)
15.01.2021 02:00 -0,6 C 82 % 1021,7 hPa 0,0 mm 0,0 km/h (0 Bft) N 0,00 h 0,0 mm 0,0 UV-I 0 W/m -3,4 C 0,0 km/h (0 Bft)
15.01.2021 03:00 -0,6 C 83 % 1022,4 hPa 0,0 mm 0,0 km/h (0 Bft) N 0,00 h 0,0 mm 0,0 UV-I 0 W/m -3,2 C 0,0 km/h (0 Bft)
15.01.2021 04:00 -0,1 C 83 % 1022,9 hPa 0,0 mm 0,0 km/h (0 Bft) N 0,00 h 0,0 mm 0,0 UV-I 0 W/m -2,6 C 0,0 km/h (0 Bft)
15.01.2021 05:00 0,7 C 83 % 1023,5 hPa 0,0 mm 0,0 km/h (0 Bft) N 0,00 h 0,0 mm 0,0 UV-I 0 W/m -1,9 C 0,2 km/h (0 Bft)
15.01.2021 06:00 1,0 C 79 % 1023,9 hPa 0,0 mm 0,0 km/h (0 Bft) N 0,00 h 0,0 mm 0,0 UV-I 0 W/m -2,2 C 0,2 km/h (0 Bft)
15.01.2021 07:00 1,4 C 79 % 1024,6 hPa 0,0 mm 0,1 km/h (0 Bft) N 0,00 h 0,0 mm 0,0 UV-I 0 W/m -2,0 C 0,7 km/h (0 Bft)
15.01.2021 08:00 1,2 C 84 % 1025,3 hPa 0,0 mm 0,0 km/h (0 Bft) N 0,00 h 0,0 mm 0,0 UV-I 5 W/m -1,2 C 0,0 km/h (0 Bft)
15.01.2021 09:00 1,1 C 86 % 1026,1 hPa 0,0 mm 0,0 km/h (0 Bft) N 0,00 h 0,0 mm 0,0 UV-I 21 W/m -1,0 C 0,0 km/h (0 Bft)
15.01.2021 10:00 1,3 C 86 % 1027,0 hPa 0,0 mm 0,0 km/h (0 Bft) N 0,00 h 0,0 mm 0,6 UV-I 48 W/m -0,8 C 0,4 km/h (0 Bft)
15.01.2021 11:00 1,5 C 84 % 1027,7 hPa 0,0 mm 0,0 km/h (0 Bft) N 0,00 h 0,0 mm 1,0 UV-I 68 W/m -0,8 C 0,6 km/h (0 Bft)
15.01.2021 12:00 1,6 C 85 % 1028,0 hPa 0,0 mm 0,0 km/h (0 Bft) N 0,00 h 0,0 mm 1,2 UV-I 98 W/m -0,7 C 0,2 km/h (0 Bft)
15.01.2021 13:00 2,3 C 81 % 1027,8 hPa 0,0 mm 0,0 km/h (0 Bft) N 0,33 h 0,0 mm 1,4 UV-I 182 W/m -0,5 C 0,9 km/h (0 Bft)
15.01.2021 14:00 2,6 C 81 % 1027,9 hPa 0,0 mm 0,6 km/h (0 Bft) S 0,00 h 0,1 mm 1,2 UV-I 69 W/m -0,4 C 3,5 km/h (1 Bft)
15.01.2021 15:00 2,3 C 79 % 1028,2 hPa 0,0 mm 0,2 km/h (0 Bft) N 0,00 h 0,0 mm 0,0 UV-I 39 W/m -0,9 C 1,7 km/h (1 Bft)
15.01.2021 16:00 1,7 C 83 % 1028,7 hPa 0,0 mm 0,1 km/h (0 Bft) N 0,00 h 0,0 mm 0,0 UV-I 9 W/m -0,9 C 1,6 km/h (1 Bft)
15.01.2021 17:00 1,3 C 85 % 1028,9 hPa 0,0 mm 0,1 km/h (0 Bft) N 0,00 h 0,0 mm 0,0 UV-I 0 W/m -1,0 C 1,3 km/h (1 Bft)
15.01.2021 18:00 1,0 C 86 % 1029,0 hPa 0,0 mm 0,4 km/h (0 Bft) N 0,00 h 0,0 mm 0,0 UV-I 0 W/m -1,0 C 2,6 km/h (1 Bft)
15.01.2021 19:00 1,0 C 86 % 1029,3 hPa 0,0 mm 0,3 km/h (0 Bft) N 0,00 h 0,0 mm 0,0 UV-I 0 W/m -1,0 C 2,4 km/h (1 Bft)
15.01.2021 20:00 0,9 C 85 % 1029,5 hPa 0,0 mm 0,0 km/h (0 Bft) N 0,00 h 0,0 mm 0,0 UV-I 0 W/m -1,3 C 0,2 km/h (0 Bft)
15.01.2021 21:00 0,7 C 86 % 1030,0 hPa 0,0 mm 0,0 km/h (0 Bft) N 0,00 h 0,0 mm 0,0 UV-I 0 W/m -1,4 C 0,9 km/h (0 Bft)
15.01.2021 22:00 0,6 C 86 % 1030,2 hPa 0,0 mm 0,0 km/h (0 Bft) N 0,00 h 0,0 mm 0,0 UV-I 0 W/m -1,5 C 0,4 km/h (0 Bft)
15.01.2021 23:00 0,4 C 86 % 1030,3 hPa 0,0 mm 0,1 km/h (0 Bft) N 0,00 h 0,0 mm 0,0 UV-I 0 W/m -1,6 C 0,4 km/h (0 Bft)
16.01.2021 00:00 0,3 C 86 % 1030,1 hPa 0,0 mm 0,7 km/h (0 Bft) N-NW 0,00 h 0,0 mm 0,0 UV-I 0 W/m -1,7 C 2,0 km/h (1 Bft)
16.01.2021 01:00 0,3 C 86 % 1029,8 hPa 0,0 mm 0,3 km/h (0 Bft) N-NW 0,00 h 0,0 mm 0,0 UV-I 0 W/m -1,7 C 1,1 km/h (1 Bft)
16.01.2021 02:00 0,2 C 86 % 1029,6 hPa 0,0 mm 1,0 km/h (0 Bft) N-NW 0,00 h 0,0 mm 0,0 UV-I 0 W/m -1,8 C 3,3 km/h (1 Bft)
16.01.2021 03:00 0,3 C 86 % 1029,3 hPa 0,0 mm 1,1 km/h (0 Bft) N-NW 0,00 h 0,0 mm 0,0 UV-I 0 W/m -1,8 C 3,5 km/h (1 Bft)
16.01.2021 04:00 0,3 C 86 % 1029,0 hPa 0,0 mm 0,9 km/h (0 Bft) N-NW 0,00 h 0,0 mm 0,0 UV-I 0 W/m -1,8 C 3,4 km/h (1 Bft)
16.01.2021 05:00 0,3 C 86 % 1028,7 hPa 0,0 mm 0,6 km/h (0 Bft) N-NW 0,00 h 0,0 mm 0,0 UV-I 0 W/m -1,7 C 1,9 km/h (1 Bft)
16.01.2021 06:00 0,3 C 86 % 1028,3 hPa 0,0 mm 0,4 km/h (0 Bft) N-NW 0,00 h 0,0 mm 0,0 UV-I 0 W/m -1,7 C 2,4 km/h (1 Bft)
16.01.2021 07:00 0,4 C 86 % 1027,7 hPa 0,0 mm 1,1 km/h (1 Bft) NW 0,00 h 0,0 mm 0,0 UV-I 0 W/m -1,7 C 4,1 km/h (1 Bft)
16.01.2021 08:00 0,5 C 85 % 1027,5 hPa 0,0 mm 2,0 km/h (1 Bft) NW 0,00 h 0,0 mm 0,0 UV-I 7 W/m -1,7 C 5,0 km/h (1 Bft)
16.01.2021 09:00 0,6 C 85 % 1027,1 hPa 0,0 mm 2,2 km/h (1 Bft) W 0,00 h 0,0 mm 0,0 UV-I 21 W/m -1,7 C 6,9 km/h (2 Bft)
16.01.2021 10:00 0,8 C 84 % 1026,7 hPa 0,0 mm 2,2 km/h (1 Bft) W 0,00 h 0,0 mm 0,0 UV-I 31 W/m -1,6 C 6,5 km/h (2 Bft)
16.01.2021 11:00 1,1 C 81 % 1026,2 hPa 0,0 mm 4,4 km/h (1 Bft) W-SW 0,00 h 0,0 mm 0,0 UV-I 45 W/m -1,8 C 10,3 km/h (2 Bft)
16.01.2021 12:00 1,4 C 80 % 1025,5 hPa 0,0 mm 4,8 km/h (1 Bft) W 0,00 h 0,0 mm 1,3 UV-I 73 W/m -1,7 C 10,6 km/h (2 Bft)
16.01.2021 13:00 1,8 C 76 % 1024,5 hPa 0,0 mm 4,8 km/h (1 Bft) W 0,00 h 0,0 mm 1,3 UV-I 82 W/m -1,9 C 10,8 km/h (2 Bft)
16.01.2021 14:00 2,1 C 68 % 1023,7 hPa 0,0 mm 6,3 km/h (2 Bft) W 0,00 h 0,0 mm 1,2 UV-I 76 W/m -3,1 C 15,8 km/h (3 Bft)
16.01.2021 15:00 1,9 C 68 % 1022,9 hPa 0,0 mm 7,8 km/h (2 Bft) W-SW 0,00 h 0,0 mm 0,0 UV-I 40 W/m -3,4 C 16,6 km/h (3 Bft)
16.01.2021 16:00 1,5 C 70 % 1022,0 hPa 0,0 mm 7,4 km/h (2 Bft) SW 0,00 h 0,0 mm 0,0 UV-I 17 W/m -3,4 C 15,9 km/h (3 Bft)
16.01.2021 17:00 1,2 C 71 % 1020,8 hPa 0,0 mm 7,6 km/h (2 Bft) SW 0,00 h 0,0 mm 0,0 UV-I 0 W/m -3,4 C 17,0 km/h (3 Bft)
16.01.2021 18:00 1,1 C 72 % 1019,6 hPa 0,0 mm 9,4 km/h (2 Bft) W-SW 0,00 h 0,0 mm 0,0 UV-I 0 W/m -3,4 C 21,1 km/h (4 Bft)
16.01.2021 19:00 0,4 C 81 % 1019,3 hPa 0,0 mm 9,4 km/h (2 Bft) SW 0,00 h 0,0 mm 0,0 UV-I 0 W/m -2,5 C 22,4 km/h (4 Bft)
16.01.2021 20:00 -0,3 C 89 % 1018,9 hPa 0,0 mm 7,3 km/h (2 Bft) SW 0,00 h 0,0 mm 0,0 UV-I 0 W/m -1,8 C 16,3 km/h (3 Bft)
16.01.2021 21:00 -0,3 C 91 % 1018,3 hPa 0,0 mm 6,4 km/h (2 Bft) SW 0,00 h 0,0 mm 0,0 UV-I 0 W/m -1,6 C 16,3 km/h (3 Bft)
16.01.2021 22:00 -0,3 C 93 % 1017,8 hPa 0,0 mm 5,6 km/h (1 Bft) SW 0,00 h 0,0 mm 0,0 UV-I 0 W/m -1,4 C 14,6 km/h (3 Bft)
16.01.2021 23:00 -0,4 C 93 % 1017,4 hPa 0,0 mm 4,7 km/h (1 Bft) SW 0,00 h 0,0 mm 0,0 UV-I 0 W/m -1,4 C 12,9 km/h (3 Bft)
17.01.2021 00:00 -0,5 C 93 % 1016,9 hPa 0,0 mm 5,8 km/h (2 Bft) W-SW 0,00 h 0,0 mm 0,0 UV-I 0 W/m -1,5 C 14,4 km/h (3 Bft)
17.01.2021 01:00 -0,5 C 93 % 1016,1 hPa 0,0 mm 5,2 km/h (1 Bft) S-SW 0,00 h 0,0 mm 0,0 UV-I 0 W/m -1,5 C 13,3 km/h (3 Bft)
17.01.2021 02:00 -0,6 C 93 % 1015,9 hPa 0,0 mm 3,3 km/h (1 Bft) SW 0,00 h 0,0 mm 0,0 UV-I 0 W/m -1,5 C 10,2 km/h (2 Bft)
17.01.2021 03:00 -0,5 C 93 % 1015,8 hPa 0,0 mm 2,6 km/h (1 Bft) SW 0,00 h 0,0 mm 0,0 UV-I 0 W/m -1,5 C 8,5 km/h (2 Bft)
17.01.2021 04:00 -0,5 C 94 % 1015,6 hPa 0,0 mm 2,8 km/h (1 Bft) SW 0,00 h 0,0 mm 0,0 UV-I 0 W/m -1,3 C 8,1 km/h (2 Bft)
17.01.2021 05:00 -0,4 C 94 % 1015,5 hPa 0,0 mm 3,5 km/h (1 Bft) SW 0,00 h 0,0 mm 0,0 UV-I 0 W/m -1,2 C 10,0 km/h (2 Bft)
17.01.2021 06:00 -0,3 C 94 % 1015,6 hPa 0,0 mm 2,7 km/h (1 Bft) SW 0,00 h 0,0 mm 0,0 UV-I 0 W/m -1,1 C 8,5 km/h (2 Bft)
17.01.2021 07:00 -0,2 C 94 % 1015,8 hPa 0,0 mm 3,8 km/h (1 Bft) SW 0,00 h 0,0 mm 0,0 UV-I 0 W/m -1,0 C 10,7 km/h (2 Bft)
17.01.2021 08:00 -0,1 C 94 % 1016,2 hPa 0,0 mm 3,0 km/h (1 Bft) SW 0,00 h 0,0 mm 0,0 UV-I 5 W/m -0,9 C 9,3 km/h (2 Bft)
17.01.2021 09:00 0,2 C 94 % 1017,0 hPa 0,0 mm 3,4 km/h (1 Bft) SW 0,00 h 0,0 mm 0,0 UV-I 17 W/m -0,7 C 9,3 km/h (2 Bft)
17.01.2021 10:00 0,4 C 94 % 1017,4 hPa 0,0 mm 2,9 km/h (1 Bft) SW 0,00 h 0,0 mm 0,6 UV-I 52 W/m -0,4 C 9,1 km/h (2 Bft)
17.01.2021 11:00 0,7 C 95 % 1018,1 hPa 0,0 mm 3,0 km/h (1 Bft) W-SW 0,00 h 0,0 mm 0,2 UV-I 47 W/m -0,0 C 8,1 km/h (2 Bft)
17.01.2021 12:00 1,0 C 95 % 1018,5 hPa 0,0 mm 3,2 km/h (1 Bft) SW 0,00 h 0,0 mm 1,0 UV-I 61 W/m 0,3 C 9,3 km/h (2 Bft)
17.01.2021 13:00 1,3 C 95 % 1018,6 hPa 1,3 mm 2,2 km/h (1 Bft) W-SW 0,00 h 0,0 mm 0,8 UV-I 50 W/m 0,6 C 6,7 km/h (2 Bft)
17.01.2021 14:00 1,5 C 95 % 1018,8 hPa 0,8 mm 2,1 km/h (1 Bft) W-SW 0,00 h 0,0 mm 0,2 UV-I 42 W/m 0,8 C 6,8 km/h (2 Bft)
17.01.2021 15:00 1,9 C 95 % 1019,5 hPa 0,5 mm 1,6 km/h (1 Bft) W-SW 0,17 h 0,0 mm 1,2 UV-I 71 W/m 1,2 C 5,9 km/h (2 Bft)
17.01.2021 16:00 2,3 C 95 % 1020,2 hPa 0,8 mm 0,7 km/h (0 Bft) W-SW 0,00 h 0,0 mm 0,0 UV-I 10 W/m 1,6 C 2,8 km/h (1 Bft)
17.01.2021 17:00 2,6 C 95 % 1020,9 hPa 0,5 mm 0,2 km/h (0 Bft) N-NW 0,00 h 0,0 mm 0,0 UV-I 0 W/m 1,9 C 1,7 km/h (1 Bft)
17.01.2021 18:00 3,6 C 96 % 1021,4 hPa 0,5 mm 8,0 km/h (2 Bft) N 0,00 h 0,0 mm 0,0 UV-I 0 W/m 3,0 C 15,0 km/h (3 Bft)
17.01.2021 19:00 4,0 C 95 % 1021,9 hPa 1,0 mm 10,8 km/h (2 Bft) N-NO 0,00 h 0,0 mm 0,0 UV-I 0 W/m 3,3 C 21,5 km/h (4 Bft)
17.01.2021 20:00 4,2 C 95 % 1022,3 hPa 0,3 mm 8,1 km/h (2 Bft) N-NO 0,00 h 0,0 mm 0,0 UV-I 0 W/m 3,5 C 20,2 km/h (4 Bft)
17.01.2021 21:00 4,2 C 95 % 1022,8 hPa 0,3 mm 5,4 km/h (1 Bft) N-NO 0,00 h 0,0 mm 0,0 UV-I 0 W/m 3,5 C 16,8 km/h (3 Bft)
17.01.2021 22:00 4,1 C 95 % 1023,1 hPa 0,0 mm 4,5 km/h (1 Bft) N-NO 0,00 h 0,0 mm 0,0 UV-I 0 W/m 3,4 C 12,4 km/h (3 Bft)
17.01.2021 23:00 4,3 C 95 % 1023,5 hPa 0,0 mm 5,0 km/h (1 Bft) N-NO 0,00 h 0,0 mm 0,0 UV-I 0 W/m 3,6 C 16,5 km/h (3 Bft)
Min-Datum _ 15.01.21 16.01.21 12.01.21 - 11.01.21 - - - - - 16.01.21 11.01.21
_ Min-Zeit 02:50 14:45 09:00 - 00:25 - - - - - 18:45 00:25
Minimum _ -0,9 C 66 % 1004,5 hPa - 0,0 km/h (0 Bft) - - - - - -3,7 C 0,0 km/h (0 Bft)
Max-Datum _ 12.01.21 17.01.21 15.01.21 17.01.21 12.01.21 - 12.01.21 13.01.21 12.01.21 13.01.21 12.01.21 13.01.21
_ Max-Zeit 10:40 17:40 22:45 13:05 10:45 - 14:25 15:00 12:05 12:10 10:40 13:45
Maximum _ 7,6 C 96 % 1030,3 hPa 1,3 mm 25,4 km/h
N-NO (4 Bft)
- 0,08 h 0,1 mm 2,2 UV-I 337 W/m 6,7 C 55,5 km/h
N-NO (7 Bft)
Durchschnitt _ 2,2 C 86 % 1019,0 hPa #12,4 mm 5,6 km/h (1 Bft) SW #4:30 h #1,753 mm 1,1 UV-I 58 W/m 0,1 C 13,1 km/h (3 Bft)



© 1998 - 2021 www.pulheimwetter.de